| time (UTC) | temp F | wind direction | speed knots | gust knots | rain 1hr in | rain 24hr in | rain mn in | humidity % | barometer mb |
| 20260905072025 | 87 | 0 | 0.9 | 3.5 | 0.00 | 0.00 | 0.00 | 40 | 1010.3 |
| 20260905071547 | 87 | 214 | 0.9 | 3.5 | 0.00 | 0.00 | 0.00 | 40 | 1010.1 |
| 20260905071028 | 87 | 211 | 0.0 | 3.5 | 0.00 | 0.00 | 0.00 | 41 | 1010.2 |
| 20260905070523 | 87 | 0 | 0.9 | 3.5 | 0.00 | 0.00 | 0.00 | 41 | 1010.2 |
| 20260905070105 | 88 | 254 | 0.0 | 1.7 | 0.00 | 0.00 | 0.00 | 41 | 1010.2 |
| 20260905065527 | 88 | 254 | 0.0 | 1.7 | 0.00 | 0.00 | 0.00 | 40 | 1010.2 |
| 20260905065023 | 88 | 265 | 0.0 | 1.7 | 0.00 | 0.00 | 0.00 | 40 | 1010.2 |
| 20260905064550 | 88 | 0 | 0.0 | 1.7 | 0.00 | 0.00 | 0.00 | 40 | 1010.2 |
| 20260905064026 | 89 | 265 | 0.0 | 1.7 | 0.00 | 0.00 | 0.00 | 39 | 1010.1 |
| 20260905063525 | 89 | 0 | 0.0 | 1.7 | 0.00 | 0.00 | 0.00 | 39 | 1010.0 |
| 20260905063047 | 89 | 0 | 0.0 | 1.7 | 0.00 | 0.00 | 0.00 | 39 | 1010.1 |
| 20260905062527 | 89 | 254 | 0.0 | 1.7 | 0.00 | 0.00 | 0.00 | 38 | 1009.9 |
| 20260905062026 | 89 | 259 | 0.0 | 1.7 | 0.00 | 0.00 | 0.00 | 38 | 1009.9 |
| 20260905061548 | 89 | 0 | 0.0 | 1.7 | 0.00 | 0.00 | 0.00 | 38 | 1009.9 |
| 20260905061024 | 89 | 261 | 0.9 | 1.7 | 0.00 | 0.00 | 0.00 | 37 | 1009.9 |
| 20260905060525 | 90 | 0 | 0.0 | 1.7 | 0.00 | 0.00 | 0.00 | 37 | 1009.9 |
| 20260905060048 | 90 | 240 | 0.0 | 1.7 | 0.00 | 0.00 | 0.00 | 37 | 1009.8 |
| 20260905055524 | 90 | 0 | 0.0 | 1.7 | 0.00 | 0.00 | 0.00 | 36 | 1009.9 |
| 20260905055023 | 90 | 267 | 0.0 | 0.9 | 0.00 | 0.00 | 0.00 | 35 | 1009.8 |
| 20260905054558 | 91 | 267 | 0.0 | 1.7 | 0.00 | 0.00 | 0.00 | 35 | 1009.7 |
| 20260905054026 | 91 | 0 | 0.0 | 1.7 | 0.00 | 0.00 | 0.00 | 35 | 1009.7 |
| 20260905053524 | 91 | 0 | 0.0 | 1.7 | 0.00 | 0.00 | 0.00 | 35 | 1009.7 |
| 20260905053050 | 91 | 265 | 0.9 | 1.7 | 0.00 | 0.00 | 0.00 | 34 | 1009.7 |
| 20260905052525 | 91 | 260 | 0.0 | 1.7 | 0.00 | 0.00 | 0.00 | 34 | 1009.7 |
| 20260905052028 | 92 | 0 | 0.0 | 2.6 | 0.00 | 0.00 | 0.00 | 33 | 1009.6 |
| 20260905051547 | 92 | 262 | 0.9 | 2.6 | 0.00 | 0.00 | 0.00 | 33 | 1009.7 |
| 20260905051024 | 92 | 264 | 0.9 | 3.5 | 0.00 | 0.00 | 0.00 | 33 | 1009.7 |
| 20260905050524 | 92 | 0 | 0.9 | 3.5 | 0.00 | 0.00 | 0.00 | 33 | 1009.7 |
| 20260905050100 | 92 | 269 | 0.9 | 2.6 | 0.00 | 0.00 | 0.00 | 32 | 1009.6 |
| 20260905045524 | 92 | 271 | 0.9 | 2.6 | 0.00 | 0.00 | 0.00 | 32 | 1009.5 |
| 20260905045025 | 93 | 302 | 0.0 | 2.6 | 0.00 | 0.00 | 0.00 | 32 | 1009.5 |
| 20260905044554 | 93 | 246 | 0.0 | 2.6 | 0.00 | 0.00 | 0.00 | 32 | 1009.5 |
| 20260905044023 | 93 | 284 | 0.9 | 2.6 | 0.00 | 0.00 | 0.00 | 31 | 1009.5 |
| 20260905043523 | 93 | 273 | 0.9 | 5.2 | 0.00 | 0.00 | 0.00 | 31 | 1009.5 |
| 20260905043048 | 94 | 279 | 0.9 | 5.2 | 0.00 | 0.00 | 0.00 | 31 | 1009.5 |
| 20260905042525 | 94 | 274 | 0.9 | 6.1 | 0.00 | 0.00 | 0.00 | 30 | 1009.5 |
| 20260905042024 | 94 | 281 | 0.9 | 7.0 | 0.00 | 0.00 | 0.00 | 30 | 1009.5 |
| 20260905041554 | 94 | 296 | 1.7 | 7.0 | 0.00 | 0.00 | 0.00 | 30 | 1009.4 |
| 20260905041025 | 94 | 269 | 1.7 | 6.1 | 0.00 | 0.00 | 0.00 | 30 | 1009.4 |
| 20260905040525 | 95 | 288 | 1.7 | 6.1 | 0.00 | 0.00 | 0.00 | 30 | 1009.4 |
| 20260905040055 | 95 | 240 | 1.7 | 6.1 | 0.00 | 0.00 | 0.00 | 29 | 1009.2 |
| 20260905035524 | 95 | 268 | 2.6 | 7.8 | 0.00 | 0.00 | 0.00 | 29 | 1009.2 |
| 20260905035024 | 95 | 256 | 2.6 | 7.8 | 0.00 | 0.00 | 0.00 | 29 | 1009.1 |
| 20260905034548 | 95 | 288 | 2.6 | 7.8 | 0.00 | 0.00 | 0.00 | 29 | 1009.1 |
| 20260905034024 | 95 | 293 | 2.6 | 10.4 | 0.00 | 0.00 | 0.00 | 30 | 1009.0 |
| 20260905033524 | 95 | 273 | 2.6 | 10.4 | 0.00 | 0.00 | 0.00 | 30 | 1009.0 |
| 20260905033051 | 95 | 267 | 2.6 | 6.1 | 0.00 | 0.00 | 0.00 | 31 | 1008.9 |
| 20260905032525 | 96 | 215 | 0.9 | 3.5 | 0.00 | 0.00 | 0.00 | 32 | 1008.8 |
| 20260905032024 | 96 | 198 | 0.9 | 3.5 | 0.00 | 0.00 | 0.00 | 32 | 1008.8 |
| 20260905031553 | 96 | 278 | 0.0 | 0.9 | 0.00 | 0.00 | 0.00 | 33 | 1008.7 |
| 20260905031026 | 95 | 0 | 0.0 | 0.0 | 0.00 | 0.00 | 0.00 | 33 | 1008.6 |
| 20260905030523 | 96 | 0 | 0.0 | 0.0 | 0.00 | 0.00 | 0.00 | 33 | 1008.5 |
| 20260905030049 | 96 | 0 | 0.0 | 0.0 | 0.00 | 0.00 | 0.00 | 32 | 1008.4 |
| 20260905025522 | 96 | 0 | 0.0 | 0.0 | 0.00 | 0.00 | 0.00 | 32 | 1008.3 |
| 20260905025027 | 96 | 0 | 0.0 | 0.0 | 0.00 | 0.00 | 0.00 | 32 | 1008.2 |
| 20260905024547 | 96 | 0 | 0.0 | 0.0 | 0.00 | 0.00 | 0.00 | 32 | 1008.2 |
| 20260905024027 | 96 | 0 | 0.0 | 0.0 | 0.00 | 0.00 | 0.00 | 32 | 1008.3 |
| 20260905023524 | 96 | 0 | 0.0 | 0.9 | 0.00 | 0.00 | 0.00 | 32 | 1008.3 |
| 20260905023046 | 96 | 0 | 0.0 | 0.9 | 0.00 | 0.00 | 0.00 | 31 | 1008.3 |
| 20260905022528 | 96 | 0 | 0.0 | 0.9 | 0.00 | 0.00 | 0.00 | 31 | 1008.2 |
| 20260905022024 | 97 | 0 | 0.0 | 0.9 | 0.00 | 0.00 | 0.00 | 31 | 1008.1 |
| 20260905021553 | 97 | 0 | 0.0 | 0.9 | 0.00 | 0.00 | 0.00 | 30 | 1008.1 |
| 20260905021027 | 97 | 0 | 0.0 | 0.9 | 0.00 | 0.00 | 0.00 | 30 | 1008.1 |
| 20260905020523 | 97 | 0 | 0.0 | 0.9 | 0.00 | 0.00 | 0.00 | 30 | 1008.1 |
| 20260905020056 | 97 | 0 | 0.0 | 1.7 | 0.00 | 0.00 | 0.00 | 30 | 1008.0 |
| 20260905015524 | 97 | 278 | 0.0 | 2.6 | 0.00 | 0.00 | 0.00 | 30 | 1008.0 |
| 20260905015024 | 98 | 0 | 0.0 | 2.6 | 0.00 | 0.00 | 0.00 | 30 | 1007.9 |
| 20260905014547 | 98 | 284 | 0.9 | 2.6 | 0.00 | 0.00 | 0.00 | 29 | 1008.0 |
| 20260905014027 | 98 | 293 | 0.0 | 2.6 | 0.00 | 0.00 | 0.00 | 29 | 1007.9 |
| 20260905013529 | 98 | 0 | 0.9 | 3.5 | 0.00 | 0.00 | 0.00 | 29 | 1007.9 |
| 20260905013050 | 98 | 278 | 0.0 | 3.5 | 0.00 | 0.00 | 0.00 | 30 | 1007.9 |
| 20260905012527 | 98 | 306 | 0.9 | 6.1 | 0.00 | 0.00 | 0.00 | 29 | 1007.8 |
| 20260905012027 | 98 | 304 | 0.9 | 6.1 | 0.00 | 0.00 | 0.00 | 29 | 1007.8 |
| 20260905011548 | 99 | 226 | 1.7 | 7.0 | 0.00 | 0.00 | 0.00 | 29 | 1007.7 |
| 20260905011028 | 99 | 287 | 1.7 | 7.0 | 0.00 | 0.00 | 0.00 | 29 | 1007.7 |
| 20260905010526 | 99 | 293 | 1.7 | 5.2 | 0.00 | 0.00 | 0.00 | 29 | 1007.8 |
| 20260905005525 | 100 | 321 | 0.0 | 4.3 | 0.00 | 0.00 | 0.00 | 28 | 1007.8 |
| 20260905005025 | 100 | 0 | 1.7 | 4.3 | 0.00 | 0.00 | 0.00 | 28 | 1007.9 |
| 20260905004547 | 100 | 268 | 0.9 | 5.2 | 0.00 | 0.00 | 0.00 | 28 | 1007.9 |
| 20260905004026 | 100 | 169 | 1.7 | 6.1 | 0.00 | 0.00 | 0.00 | 28 | 1007.9 |
| 20260905003527 | 100 | 250 | 2.6 | 7.8 | 0.00 | 0.00 | 0.00 | 28 | 1007.8 |
| 20260905003044 | 100 | 192 | 2.6 | 7.8 | 0.00 | 0.00 | 0.00 | 27 | 1007.8 |
| 20260905002523 | 101 | 231 | 0.9 | 7.0 | 0.00 | 0.00 | 0.00 | 27 | 1007.8 |
| 20260905002027 | 101 | 276 | 1.7 | 6.1 | 0.00 | 0.00 | 0.00 | 27 | 1007.8 |
| 20260905001548 | 101 | 313 | 1.7 | 7.8 | 0.00 | 0.00 | 0.00 | 27 | 1007.7 |
| 20260905001024 | 101 | 208 | 2.6 | 7.8 | 0.00 | 0.00 | 0.00 | 27 | 1007.9 |
| 20260905000526 | 102 | 0 | 2.6 | 7.8 | 0.00 | 0.00 | 0.00 | 27 | 1007.9 |
| 20260905000048 | 101 | 0 | 0.0 | 2.6 | 0.00 | 0.00 | 0.00 | 29 | 1008.0 |
| 20260904235523 | 101 | 190 | 0.9 | 4.3 | 0.00 | 0.00 | 0.00 | 29 | 1008.0 |
| 20260904235024 | 100 | 153 | 1.7 | 7.0 | 0.00 | 0.00 | 0.00 | 29 | 1007.9 |
| 20260904234551 | 100 | 150 | 1.7 | 10.4 | 0.00 | 0.00 | 0.00 | 29 | 1007.9 |
| 20260904234024 | 101 | 93 | 4.3 | 10.4 | 0.00 | 0.00 | 0.00 | 29 | 1008.0 |
| 20260904233524 | 101 | 171 | 1.7 | 6.1 | 0.00 | 0.00 | 0.00 | 29 | 1008.0 |
| 20260904233045 | 101 | 180 | 1.7 | 6.1 | 0.00 | 0.00 | 0.00 | 29 | 1008.0 |
| 20260904232526 | 101 | 203 | 1.7 | 6.1 | 0.00 | 0.00 | 0.00 | 29 | 1007.9 |
| 20260904232026 | 101 | 144 | 0.9 | 5.2 | 0.00 | 0.00 | 0.00 | 29 | 1008.0 |
| 20260904231542 | 100 | 130 | 0.0 | 7.0 | 0.00 | 0.00 | 0.00 | 29 | 1008.0 |
| 20260904231023 | 100 | 163 | 2.6 | 7.0 | 0.00 | 0.00 | 0.00 | 30 | 1008.1 |
| 20260904230524 | 100 | 149 | 1.7 | 9.6 | 0.00 | 0.00 | 0.00 | 30 | 1008.1 |
| 20260904225529 | 100 | 173 | 2.6 | 7.8 | 0.00 | 0.00 | 0.00 | 30 | 1008.1 |
| 20260904225025 | 101 | 274 | 2.6 | 7.0 | 0.00 | 0.00 | 0.00 | 29 | 1008.2 |
| 20260904224604 | 101 | 248 | 0.9 | 6.1 | 0.00 | 0.00 | 0.00 | 29 | 1008.3 |
| 20260904224028 | 101 | 306 | 0.9 | 6.1 | 0.00 | 0.00 | 0.00 | 28 | 1008.4 |
| 20260904223526 | 101 | 0 | 0.0 | 8.7 | 0.00 | 0.00 | 0.00 | 29 | 1008.5 |
| 20260904223047 | 100 | 250 | 3.5 | 9.6 | 0.00 | 0.00 | 0.00 | 30 | 1008.6 |
| 20260904222524 | 100 | 208 | 4.3 | 9.6 | 0.00 | 0.00 | 0.00 | 30 | 1008.5 |
| 20260904222025 | 101 | 190 | 1.7 | 8.7 | 0.00 | 0.00 | 0.00 | 31 | 1008.5 |
| 20260904221546 | 102 | 109 | 4.3 | 8.7 | 0.00 | 0.00 | 0.00 | 31 | 1008.6 |
| 20260904221023 | 102 | 0 | 0.9 | 5.2 | 0.00 | 0.00 | 0.00 | 30 | 1008.6 |
| 20260904220524 | 101 | 0 | 0.0 | 8.7 | 0.00 | 0.00 | 0.00 | 30 | 1008.7 |
| 20260904220054 | 102 | 147 | 2.6 | 8.7 | 0.00 | 0.00 | 0.00 | 30 | 1008.7 |
| 20260904215528 | 101 | 207 | 2.6 | 12.2 | 0.00 | 0.00 | 0.00 | 30 | 1008.8 |
| 20260904215027 | 101 | 171 | 4.3 | 12.2 | 0.00 | 0.00 | 0.00 | 30 | 1008.9 |
| 20260904214554 | 101 | 140 | 2.6 | 9.6 | 0.00 | 0.00 | 0.00 | 31 | 1008.9 |
| 20260904214028 | 101 | 5 | 1.7 | 9.6 | 0.00 | 0.00 | 0.00 | 29 | 1009.1 |
| 20260904213525 | 101 | 205 | 2.6 | 8.7 | 0.00 | 0.00 | 0.00 | 29 | 1009.2 |
| 20260904213053 | 102 | 186 | 1.7 | 8.7 | 0.00 | 0.00 | 0.00 | 29 | 1009.2 |
| 20260904212527 | 101 | 155 | 3.5 | 8.7 | 0.00 | 0.00 | 0.00 | 30 | 1009.3 |
| 20260904212026 | 101 | 185 | 0.9 | 7.0 | 0.00 | 0.00 | 0.00 | 31 | 1009.5 |
| 20260904211555 | 101 | 107 | 1.7 | 7.8 | 0.00 | 0.00 | 0.00 | 31 | 1009.5 |
| 20260904211024 | 101 | 130 | 2.6 | 8.7 | 0.00 | 0.00 | 0.00 | 30 | 1009.6 |
| 20260904210526 | 101 | 200 | 2.6 | 8.7 | 0.00 | 0.00 | 0.00 | 31 | 1009.7 |
| 20260904210053 | 101 | 170 | 0.9 | 6.1 | 0.00 | 0.00 | 0.00 | 32 | 1009.7 |
| 20260904205526 | 101 | 300 | 0.9 | 6.1 | 0.00 | 0.00 | 0.00 | 31 | 1009.6 |
| 20260904205025 | 100 | 231 | 1.7 | 6.1 | 0.00 | 0.00 | 0.00 | 31 | 1009.7 |
| 20260904204546 | 100 | 329 | 1.7 | 7.8 | 0.00 | 0.00 | 0.00 | 32 | 1009.7 |
| 20260904204029 | 100 | 55 | 2.6 | 7.8 | 0.00 | 0.00 | 0.00 | 31 | 1009.8 |
| 20260904203523 | 99 | 152 | 0.9 | 4.3 | 0.00 | 0.00 | 0.00 | 35 | 1009.9 |
| 20260904203050 | 99 | 320 | 0.9 | 7.8 | 0.00 | 0.00 | 0.00 | 36 | 1010.0 |
| 20260904202525 | 99 | 272 | 0.0 | 9.6 | 0.00 | 0.00 | 0.00 | 36 | 1010.1 |
| 20260904202025 | 99 | 175 | 3.5 | 9.6 | 0.00 | 0.00 | 0.00 | 36 | 1010.2 |
| 20260904201550 | 98 | 199 | 1.7 | 7.8 | 0.00 | 0.00 | 0.00 | 37 | 1010.1 |
| 20260904201024 | 98 | 0 | 0.9 | 7.8 | 0.00 | 0.00 | 0.00 | 37 | 1010.3 |
| 20260904200524 | 99 | 186 | 1.7 | 8.7 | 0.00 | 0.00 | 0.00 | 36 | 1010.4 |
| 20260904200047 | 99 | 216 | 2.6 | 8.7 | 0.00 | 0.00 | 0.00 | 35 | 1010.5 |
| 20260904195525 | 99 | 209 | 3.5 | 8.7 | 0.00 | 0.00 | 0.00 | 36 | 1010.6 |
| 20260904195026 | 98 | 242 | 2.6 | 11.3 | 0.00 | 0.00 | 0.00 | 35 | 1010.6 |
| 20260904194545 | 98 | 265 | 3.5 | 11.3 | 0.00 | 0.00 | 0.00 | 36 | 1010.7 |
| 20260904194024 | 98 | 200 | 3.5 | 11.3 | 0.00 | 0.00 | 0.00 | 37 | 1010.7 |
| 20260904193524 | 97 | 281 | 1.7 | 7.0 | 0.00 | 0.00 | 0.00 | 38 | 1010.8 |
| 20260904193052 | 98 | 255 | 1.7 | 8.7 | 0.00 | 0.00 | 0.00 | 38 | 1010.9 |
| 20260904192527 | 97 | 143 | 2.6 | 8.7 | 0.00 | 0.00 | 0.00 | 40 | 1010.9 |
| 20260904192025 | 97 | 131 | 2.6 | 8.7 | 0.00 | 0.00 | 0.00 | 40 | 1011.1 |
| 20260904191546 | 97 | 92 | 1.7 | 8.7 | 0.00 | 0.00 | 0.00 | 40 | 1011.1 |
| 20260904191024 | 97 | 178 | 2.6 | 8.7 | 0.00 | 0.00 | 0.00 | 39 | 1011.2 |
| 20260904190523 | 97 | 251 | 1.7 | 7.8 | 0.00 | 0.00 | 0.00 | 39 | 1011.3 |
| 20260904190045 | 96 | 192 | 2.6 | 8.7 | 0.00 | 0.00 | 0.00 | 39 | 1011.4 |
| 20260904185525 | 97 | 162 | 2.6 | 8.7 | 0.00 | 0.00 | 0.00 | 39 | 1011.4 |
| 20260904185024 | 96 | 202 | 0.0 | 10.4 | 0.00 | 0.00 | 0.00 | 41 | 1011.5 |
| 20260904184545 | 96 | 185 | 2.6 | 13.0 | 0.00 | 0.00 | 0.00 | 40 | 1011.6 |
| 20260904184026 | 96 | 204 | 3.5 | 13.0 | 0.00 | 0.00 | 0.00 | 40 | 1011.6 |
| 20260904183524 | 96 | 175 | 2.6 | 8.7 | 0.00 | 0.00 | 0.00 | 40 | 1011.7 |
| 20260904183051 | 96 | 163 | 1.7 | 8.7 | 0.00 | 0.00 | 0.00 | 41 | 1011.7 |
| 20260904182525 | 95 | 140 | 3.5 | 8.7 | 0.00 | 0.00 | 0.00 | 42 | 1011.8 |
| 20260904182028 | 95 | 162 | 1.7 | 9.6 | 0.00 | 0.00 | 0.00 | 41 | 1011.9 |
| 20260904181547 | 95 | 223 | 2.6 | 10.4 | 0.00 | 0.00 | 0.00 | 41 | 1012.0 |
| 20260904181028 | 95 | 182 | 3.5 | 10.4 | 0.00 | 0.00 | 0.00 | 42 | 1012.1 |
| 20260904180527 | 95 | 169 | 4.3 | 10.4 | 0.00 | 0.00 | 0.00 | 42 | 1012.1 |
| 20260904180047 | 95 | 198 | 3.5 | 10.4 | 0.00 | 0.00 | 0.00 | 42 | 1012.1 |
| 20260904175525 | 94 | 196 | 4.3 | 10.4 | 0.00 | 0.00 | 0.00 | 43 | 1012.1 |
| 20260904175025 | 94 | 132 | 3.5 | 10.4 | 0.00 | 0.00 | 0.00 | 43 | 1012.1 |
| 20260904174554 | 94 | 191 | 5.2 | 12.2 | 0.00 | 0.00 | 0.00 | 43 | 1012.2 |
| 20260904174026 | 94 | 0 | 3.5 | 12.2 | 0.00 | 0.00 | 0.00 | 44 | 1012.1 |
| 20260904173523 | 93 | 186 | 4.3 | 12.2 | 0.00 | 0.00 | 0.00 | 45 | 1012.1 |
| 20260904173053 | 93 | 159 | 3.5 | 9.6 | 0.00 | 0.00 | 0.00 | 46 | 1012.2 |
| 20260904172528 | 93 | 207 | 5.2 | 9.6 | 0.00 | 0.00 | 0.00 | 46 | 1012.2 |
| 20260904172026 | 92 | 194 | 1.7 | 8.7 | 0.00 | 0.00 | 0.00 | 51 | 1012.2 |
| 20260904171552 | 92 | 173 | 3.5 | 8.7 | 0.00 | 0.00 | 0.00 | 51 | 1012.2 |
| 20260904171025 | 92 | 132 | 1.7 | 9.6 | 0.00 | 0.00 | 0.00 | 51 | 1012.2 |
| 20260904170524 | 92 | 108 | 3.5 | 13.0 | 0.00 | 0.00 | 0.00 | 50 | 1012.2 |
| 20260904170046 | 92 | 162 | 3.5 | 13.0 | 0.00 | 0.00 | 0.00 | 49 | 1012.2 |
| 20260904165528 | 92 | 172 | 5.2 | 13.0 | 0.00 | 0.00 | 0.00 | 49 | 1012.2 |
| 20260904165026 | 92 | 155 | 3.5 | 10.4 | 0.00 | 0.00 | 0.00 | 50 | 1012.1 |
| 20260904164557 | 91 | 165 | 4.3 | 10.4 | 0.00 | 0.00 | 0.00 | 51 | 1012.1 |
| 20260904164024 | 91 | 175 | 4.3 | 9.6 | 0.00 | 0.00 | 0.00 | 52 | 1012.1 |
| 20260904163531 | 91 | 153 | 2.6 | 12.2 | 0.00 | 0.00 | 0.00 | 52 | 1012.0 |
| 20260904163048 | 91 | 200 | 4.3 | 12.2 | 0.00 | 0.00 | 0.00 | 53 | 1012.0 |
| 20260904162527 | 91 | 128 | 4.3 | 11.3 | 0.00 | 0.00 | 0.00 | 52 | 1011.9 |
| 20260904162026 | 90 | 146 | 2.6 | 11.3 | 0.00 | 0.00 | 0.00 | 53 | 1011.9 |
| 20260904161547 | 90 | 145 | 2.6 | 12.2 | 0.00 | 0.00 | 0.00 | 54 | 1011.9 |
| 20260904161028 | 90 | 182 | 2.6 | 12.2 | 0.00 | 0.00 | 0.00 | 55 | 1012.0 |
| 20260904160527 | 89 | 155 | 3.5 | 9.6 | 0.00 | 0.00 | 0.00 | 55 | 1011.9 |
| 20260904160052 | 89 | 135 | 4.3 | 8.7 | 0.00 | 0.00 | 0.00 | 55 | 1012.0 |
| 20260904155525 | 89 | 230 | 3.5 | 8.7 | 0.00 | 0.00 | 0.00 | 56 | 1011.9 |
| 20260904155024 | 89 | 166 | 4.3 | 8.7 | 0.00 | 0.00 | 0.00 | 55 | 1011.8 |
| 20260904154545 | 89 | 135 | 1.7 | 9.6 | 0.00 | 0.00 | 0.00 | 57 | 1011.8 |
| 20260904154029 | 88 | 146 | 3.5 | 9.6 | 0.00 | 0.00 | 0.00 | 57 | 1011.7 |
| 20260904153526 | 88 | 159 | 3.5 | 9.6 | 0.00 | 0.00 | 0.00 | 58 | 1011.7 |
| 20260904153047 | 88 | 0 | 3.5 | 9.6 | 0.00 | 0.00 | 0.00 | 58 | 1011.6 |
| 20260904152528 | 88 | 148 | 3.5 | 10.4 | 0.00 | 0.00 | 0.00 | 58 | 1011.6 |
| 20260904152024 | 87 | 163 | 4.3 | 10.4 | 0.00 | 0.00 | 0.00 | 59 | 1011.6 |
| 20260904151546 | 87 | 200 | 3.5 | 12.2 | 0.00 | 0.00 | 0.00 | 59 | 1011.6 |
| 20260904151025 | 87 | 152 | 4.3 | 12.2 | 0.00 | 0.00 | 0.00 | 60 | 1011.6 |
| 20260904150525 | 86 | 216 | 3.5 | 9.6 | 0.00 | 0.00 | 0.00 | 60 | 1011.6 |
| 20260904150047 | 86 | 138 | 3.5 | 11.3 | 0.00 | 0.00 | 0.00 | 60 | 1011.7 |
| 20260904145527 | 86 | 128 | 4.3 | 11.3 | 0.00 | 0.00 | 0.00 | 61 | 1011.6 |
| 20260904145022 | 86 | 161 | 2.6 | 7.8 | 0.00 | 0.00 | 0.00 | 62 | 1011.6 |
| 20260904144548 | 86 | 161 | 2.6 | 7.8 | 0.00 | 0.00 | 0.00 | 62 | 1011.6 |
| 20260904144027 | 85 | 198 | 2.6 | 7.8 | 0.00 | 0.00 | 0.00 | 63 | 1011.6 |
| 20260904143523 | 85 | 174 | 2.6 | 7.8 | 0.00 | 0.00 | 0.00 | 63 | 1011.5 |
| 20260904143045 | 85 | 130 | 1.7 | 7.0 | 0.00 | 0.00 | 0.00 | 64 | 1011.4 |
| 20260904142525 | 84 | 158 | 1.7 | 7.8 | 0.00 | 0.00 | 0.00 | 64 | 1011.4 |
| 20260904142026 | 84 | 145 | 2.6 | 7.8 | 0.00 | 0.00 | 0.00 | 65 | 1011.3 |
| 20260904141546 | 84 | 174 | 2.6 | 7.8 | 0.00 | 0.00 | 0.00 | 65 | 1011.3 |
| 20260904141025 | 83 | 173 | 2.6 | 7.8 | 0.00 | 0.00 | 0.00 | 66 | 1011.3 |
| 20260904140524 | 83 | 169 | 3.5 | 8.7 | 0.00 | 0.00 | 0.00 | 66 | 1011.1 |
| 20260904140103 | 83 | 153 | 2.6 | 10.4 | 0.00 | 0.00 | 0.00 | 67 | 1011.1 |
| 20260904135528 | 83 | 159 | 4.3 | 10.4 | 0.00 | 0.00 | 0.00 | 67 | 1011.1 |
| 20260904135030 | 83 | 160 | 4.3 | 10.4 | 0.00 | 0.00 | 0.00 | 67 | 1010.9 |
| 20260904134559 | 82 | 123 | 4.3 | 10.4 | 0.00 | 0.00 | 0.00 | 67 | 1010.9 |
| 20260904134026 | 82 | 152 | 2.6 | 9.6 | 0.00 | 0.00 | 0.00 | 67 | 1010.8 |
| 20260904133524 | 82 | 191 | 3.5 | 8.7 | 0.00 | 0.00 | 0.00 | 68 | 1010.7 |
| 20260904133053 | 82 | 144 | 3.5 | 7.8 | 0.00 | 0.00 | 0.00 | 68 | 1010.6 |
| 20260904132528 | 82 | 152 | 2.6 | 7.8 | 0.00 | 0.00 | 0.00 | 68 | 1010.6 |
| 20260904132027 | 82 | 163 | 3.5 | 8.7 | 0.00 | 0.00 | 0.00 | 68 | 1010.6 |
| 20260904131547 | 82 | 153 | 4.3 | 10.4 | 0.00 | 0.00 | 0.00 | 68 | 1010.4 |
| 20260904131026 | 82 | 156 | 3.5 | 10.4 | 0.00 | 0.00 | 0.00 | 68 | 1010.4 |
| 20260904130524 | 82 | 137 | 3.5 | 10.4 | 0.00 | 0.00 | 0.00 | 68 | 1010.3 |
| 20260904130055 | 82 | 142 | 3.5 | 8.7 | 0.00 | 0.00 | 0.00 | 67 | 1010.2 |
| 20260904125528 | 82 | 162 | 3.5 | 8.7 | 0.00 | 0.00 | 0.00 | 67 | 1010.2 |
| 20260904125024 | 82 | 192 | 4.3 | 8.7 | 0.00 | 0.00 | 0.00 | 67 | 1010.1 |
| 20260904124555 | 82 | 127 | 4.3 | 10.4 | 0.00 | 0.00 | 0.00 | 67 | 1010.1 |
| 20260904124025 | 82 | 150 | 3.5 | 10.4 | 0.00 | 0.00 | 0.00 | 67 | 1009.9 |
| 20260904123528 | 82 | 164 | 3.5 | 9.6 | 0.00 | 0.00 | 0.00 | 66 | 1009.9 |
| 20260904123047 | 82 | 189 | 2.6 | 9.6 | 0.00 | 0.00 | 0.00 | 66 | 1009.9 |
| 20260904122524 | 82 | 113 | 3.5 | 9.6 | 0.00 | 0.00 | 0.00 | 66 | 1009.8 |
| 20260904122028 | 82 | 117 | 4.3 | 9.6 | 0.00 | 0.00 | 0.00 | 66 | 1009.8 |
| 20260904121545 | 83 | 159 | 2.6 | 7.8 | 0.00 | 0.00 | 0.00 | 66 | 1009.8 |
| 20260904121024 | 83 | 137 | 3.5 | 7.8 | 0.00 | 0.00 | 0.00 | 65 | 1009.7 |
| 20260904120525 | 83 | 136 | 2.6 | 8.7 | 0.00 | 0.00 | 0.00 | 65 | 1009.7 |
| 20260904120055 | 83 | 158 | 3.5 | 9.6 | 0.00 | 0.00 | 0.00 | 65 | 1009.6 |
| 20260904115525 | 83 | 147 | 3.5 | 10.4 | 0.00 | 0.00 | 0.00 | 65 | 1009.7 |
| 20260904115026 | 83 | 157 | 2.6 | 10.4 | 0.00 | 0.00 | 0.00 | 64 | 1009.7 |
| 20260904114547 | 83 | 148 | 3.5 | 9.6 | 0.00 | 0.00 | 0.00 | 64 | 1009.7 |
| 20260904114026 | 83 | 137 | 2.6 | 8.7 | 0.00 | 0.00 | 0.00 | 63 | 1009.6 |
| 20260904113524 | 83 | 139 | 3.5 | 8.7 | 0.00 | 0.00 | 0.00 | 63 | 1009.6 |
| 20260904113051 | 83 | 168 | 2.6 | 8.7 | 0.00 | 0.00 | 0.00 | 63 | 1009.6 |
| 20260904112527 | 83 | 128 | 2.6 | 8.7 | 0.00 | 0.00 | 0.00 | 62 | 1009.5 |
| 20260904112025 | 83 | 118 | 2.6 | 7.8 | 0.00 | 0.00 | 0.00 | 63 | 1009.5 |
| 20260904111545 | 83 | 94 | 1.7 | 6.1 | 0.00 | 0.00 | 0.00 | 63 | 1009.5 |
| 20260904111024 | 83 | 152 | 2.6 | 7.0 | 0.00 | 0.00 | 0.00 | 63 | 1009.6 |
| 20260904110525 | 84 | 154 | 2.6 | 7.0 | 0.00 | 0.00 | 0.00 | 62 | 1009.6 |
| 20260904110052 | 84 | 136 | 1.7 | 3.5 | 0.00 | 0.00 | 0.00 | 61 | 1009.7 |
| 20260904105526 | 84 | 94 | 1.7 | 3.5 | 0.00 | 0.00 | 0.00 | 60 | 1009.7 |
| 20260904105027 | 85 | 96 | 0.0 | 6.1 | 0.00 | 0.00 | 0.00 | 60 | 1009.5 |
| 20260904104546 | 85 | 148 | 0.9 | 6.1 | 0.00 | 0.00 | 0.00 | 59 | 1009.6 |
| 20260904104028 | 85 | 0 | 0.9 | 5.2 | 0.00 | 0.00 | 0.00 | 59 | 1009.5 |
| 20260904103524 | 85 | 0 | 0.9 | 7.0 | 0.00 | 0.00 | 0.00 | 58 | 1009.4 |
| 20260904103047 | 85 | 152 | 1.7 | 7.0 | 0.00 | 0.00 | 0.00 | 58 | 1009.4 |
| 20260904102526 | 85 | 0 | 1.7 | 7.0 | 0.00 | 0.00 | 0.00 | 58 | 1009.4 |
| 20260904102024 | 85 | 195 | 2.6 | 7.0 | 0.00 | 0.00 | 0.00 | 58 | 1009.2 |
| 20260904101551 | 85 | 194 | 1.7 | 7.0 | 0.00 | 0.00 | 0.00 | 58 | 1009.2 |
| 20260904101026 | 85 | 188 | 2.6 | 7.8 | 0.00 | 0.00 | 0.00 | 58 | 1009.2 |
| 20260904100525 | 85 | 177 | 2.6 | 7.8 | 0.00 | 0.00 | 0.00 | 58 | 1009.1 |
| 20260904100045 | 85 | 152 | 2.6 | 7.0 | 0.00 | 0.00 | 0.00 | 58 | 1009.1 |
| 20260904095615 | 85 | 178 | 2.6 | 7.0 | 0.00 | 0.00 | 0.00 | 58 | 1009.2 |
| 20260904095024 | 85 | 135 | 1.7 | 6.1 | 0.00 | 0.00 | 0.00 | 58 | 1009.1 |
| 20260904094546 | 85 | 168 | 2.6 | 7.0 | 0.00 | 0.00 | 0.00 | 58 | 1009.1 |
| 20260904094024 | 85 | 140 | 2.6 | 7.0 | 0.00 | 0.00 | 0.00 | 58 | 1009.2 |
| 20260904093524 | 85 | 140 | 1.7 | 6.1 | 0.00 | 0.00 | 0.00 | 58 | 1009.2 |
| 20260904093056 | 85 | 136 | 1.7 | 6.1 | 0.00 | 0.00 | 0.00 | 57 | 1009.2 |
| 20260904092526 | 86 | 132 | 1.7 | 7.0 | 0.00 | 0.00 | 0.00 | 57 | 1009.1 |
| 20260904092024 | 86 | 186 | 2.6 | 8.7 | 0.00 | 0.00 | 0.00 | 56 | 1009.1 |
| 20260904091550 | 86 | 199 | 2.6 | 8.7 | 0.00 | 0.00 | 0.00 | 57 | 1009.1 |
| 20260904091026 | 86 | 169 | 1.7 | 5.2 | 0.00 | 0.00 | 0.00 | 56 | 1009.1 |
| 20260904090527 | 86 | 208 | 2.6 | 6.1 | 0.00 | 0.00 | 0.00 | 56 | 1009.1 |
| 20260904090049 | 86 | 122 | 0.9 | 7.0 | 0.00 | 0.00 | 0.00 | 56 | 1009.0 |
| 20260904085526 | 85 | 183 | 2.6 | 7.0 | 0.00 | 0.00 | 0.00 | 57 | 1009.1 |
| 20260904085025 | 85 | 150 | 2.6 | 7.0 | 0.00 | 0.00 | 0.00 | 57 | 1009.1 |
| 20260904084546 | 85 | 113 | 1.7 | 5.2 | 0.00 | 0.00 | 0.00 | 57 | 1009.0 |
| 20260904084028 | 86 | 142 | 1.7 | 5.2 | 0.00 | 0.00 | 0.00 | 57 | 1009.0 |
| 20260904083525 | 86 | 114 | 1.7 | 7.0 | 0.00 | 0.00 | 0.00 | 56 | 1009.0 |
| 20260904083053 | 86 | 115 | 1.7 | 7.0 | 0.00 | 0.00 | 0.00 | 55 | 1009.0 |
| 20260904082527 | 87 | 146 | 1.7 | 5.2 | 0.00 | 0.00 | 0.00 | 54 | 1009.0 |
| 20260904082024 | 87 | 146 | 1.7 | 5.2 | 0.00 | 0.00 | 0.00 | 54 | 1009.1 |
| 20260904081547 | 87 | 0 | 1.7 | 7.8 | 0.00 | 0.00 | 0.00 | 54 | 1009.0 |
| 20260904081024 | 87 | 164 | 2.6 | 7.8 | 0.00 | 0.00 | 0.00 | 53 | 1009.1 |
| 20260904080524 | 87 | 165 | 3.5 | 7.8 | 0.00 | 0.00 | 0.00 | 53 | 1009.1 |
| 20260904080049 | 87 | 191 | 1.7 | 7.8 | 0.00 | 0.00 | 0.00 | 53 | 1009.0 |
| 20260904075525 | 88 | 139 | 2.6 | 7.8 | 0.00 | 0.00 | 0.00 | 52 | 1009.0 |
| 20260904075023 | 88 | 163 | 2.6 | 6.1 | 0.00 | 0.00 | 0.00 | 52 | 1009.0 |
| 20260904074601 | 88 | 197 | 1.7 | 8.7 | 0.00 | 0.00 | 0.00 | 52 | 1009.0 |
| 20260904074028 | 88 | 177 | 2.6 | 8.7 | 0.00 | 0.00 | 0.00 | 52 | 1009.0 |
| 20260904073528 | 88 | 196 | 3.5 | 7.8 | 0.00 | 0.00 | 0.00 | 52 | 1009.0 |
| 20260904073057 | 88 | 178 | 3.5 | 9.6 | 0.00 | 0.00 | 0.00 | 52 | 1008.9 |
| 20260904072525 | 88 | 192 | 2.6 | 9.6 | 0.00 | 0.00 | 0.00 | 52 | 1008.9 |